Wind_Speed
40 39 39 38 38 37 37 37 36 36 36 36 35 35 35 34 34 34 33 33 32 32 31 31 30 30 30 29 29 28 27 26 24 23 22 21 19 18 18 18 18 18 20 21 21 20 20 20 20 20 20 21 21 21 22 22 23 25 26 26 26 26 27 28 28 27 26 24 21 17 18 21 23 22 20 21 20 19 19 18 18 17 17 14 12 12 13 14
42 41 40 39 39 39 38 38 37 37 37 36 36 36 36 35 35 35 34 34 34 33 32 32 31 31 31 31 30 30 29 27 26 25 24 23 22 21 20 20 19 20 20 22 23 21 21 21 22 22 22 23 23 24 24 24 25 26 27 28 28 28 29 30 29 27 26 24 21 18 18 23 25 23 22 22 23 21 20 18 16 16 16 15 13 12 13 14
44 43 42 41 40 40 39 39 39 38 38 37 37 37 36 36 36 35 35 35 35 34 34 33 33 32 32 32 32 31 30 29 28 27 26 26 25 24 23 23 22 21 22 23 24 23 22 22 23 23 24 24 25 25 26 26 27 27 28 29 29 29 31 31 29 27 26 24 22 19 19 23 27 26 25 24 24 22 21 19 17 16 15 14 13 12 12 13
45 45 44 43 42 42 41 40 40 40 39 39 38 38 38 37 37 36 36 35 35 35 35 35 34 33 33 33 33 33 32 31 30 29 28 28 27 27 26 25 25 24 24 25 27 26 23 23 25 25 25 26 26 27 27 28 29 30 30 30 30 31 32 32 30 28 26 25 23 22 22 24 28 28 27 25 24 23 20 19 18 16 14 13 13 12 12 13
47 46 46 45 44 44 43 42 42 41 40 40 39 39 39 38 38 38 37 36 36 36 36 36 35 34 34 34 34 34 34 33 32 31 30 30 30 29 28 27 27 26 26 28 29 28 25 24 26 27 27 28 28 28 29 30 31 31 32 32 32 32 33 32 30 29 28 26 26 25 25 26 28 28 27 26 24 23 20 18 17 17 15 13 13 12 12 13
49 48 47 47 46 46 45 44 43 43 42 41 41 40 40 40 39 39 38 38 37 36 36 36 36 35 35 35 35 35 35 34 34 32 32 32 32 31 30 29 28 28 28 30 31 29 27 26 27 28 29 30 30 31 31 31 32 32 32 32 33 33 33 32 31 30 29 29 29 28 28 28 28 27 27 25 23 22 21 20 18 16 15 14 13 12 12 12
51 50 49 48 48 47 47 46 45 45 44 43 42 42 41 41 40 40 39 39 38 38 37 37 37 36 36 36 36 36 37 36 35 34 34 33 33 33 32 31 30 30 30 31 31 30 29 28 28 29 30 31 32 32 32 32 32 32 33 33 33 33 33 32 31 31 30 30 30 30 29 29 27 27 27 26 23 22 21 20 18 17 16 14 13 12 13 13
52 52 51 50 49 48 48 47 47 46 45 44 44 43 43 42 41 41 40 40 40 39 38 38 37 37 36 36 37 37 38 37 36 36 35 34 34 34 34 32 31 31 32 33 32 31 30 30 30 30 31 32 33 33 34 33 33 33 33 33 34 34 33 33 32 31 31 30 30 30 30 28 27 26 27 25 23 21 19 18 17 17 16 14 13 12 12 13
54 53 53 52 51 50 49 48 48 47 46 46 45 44 44 43 43 42 41 41 40 40 40 39 39 38 37 37 37 38 38 38 38 38 38 36 36 36 35 33 32 33 33 34 33 32 31 31 31 32 32 33 33 34 35 35 34 34 34 34 35 35 34 33 32 32 31 30 30 29 29 28 27 26 26 24 21 19 18 16 16 16 15 13 12 11 11 12
55 55 54 54 53 52 51 50 49 48 47 47 46 45 45 44 44 43 43 42 41 41 41 40 40 39 39 37 38 39 38 38 39 40 40 39 38 37 36 34 34 34 35 35 34 33 33 32 32 33 33 33 34 35 36 36 36 35 35 35 35 34 34 33 32 32 31 31 30 29 28 27 26 26 25 23 20 17 15 15 16 17 16 14 12 11 10 10
57 56 55 55 54 54 53 52 51 50 49 48 47 47 46 45 45 45 44 43 42 42 42 42 41 41 40 39 39 39 38 38 39 40 41 42 41 40 38 36 35 35 36 35 35 34 34 33 33 33 33 34 35 35 36 36 37 36 35 34 34 34 34 33 32 31 31 30 30 29 28 27 26 26 25 23 19 16 14 15 17 17 17 16 13 12 11 11
59 58 57 56 56 55 55 54 53 52 51 50 49 48 47 47 47 46 46 45 44 44 43 43 42 42 41 40 41 39 37 39 40 41 43 44 44 42 40 37 36 36 37 36 35 35 34 34 33 33 33 34 34 35 35 36 36 36 35 34 34 33 33 32 31 30 29 29 29 28 27 26 27 26 25 23 20 17 15 16 18 18 19 18 16 14 14 13
61 61 60 59 57 56 56 55 55 54 53 52 51 50 49 48 48 48 48 47 46 46 45 44 44 43 42 43 42 39 38 40 41 42 44 45 46 45 42 39 37 37 37 37 36 35 35 34 34 34 34 34 34 35 35 36 36 36 35 34 33 33 32 31 30 29 29 28 28 27 25 25 26 26 25 22 20 17 17 18 19 20 20 21 20 17 16 16
62 62 61 61 60 59 57 56 56 55 54 54 53 52 51 51 50 51 50 48 48 47 47 46 46 45 44 45 43 40 40 41 43 44 44 45 46 47 45 40 37 37 37 37 37 37 36 35 35 35 35 35 35 36 36 36 36 36 36 34 33 32 31 29 28 28 28 28 28 26 25 25 24 24 24 22 20 18 18 20 21 21 22 23 23 22 20 19
63 62 62 62 61 61 60 59 58 56 55 55 54 54 54 53 53 53 51 50 50 50 50 49 48 47 47 47 44 42 42 43 45 45 44 45 46 48 47 43 39 37 37 37 38 38 37 36 35 35 36 36 37 37 37 37 36 36 36 34 33 32 31 29 27 27 28 28 28 26 25 25 23 23 23 22 20 19 20 22 23 23 24 25 24 24 23 22
62 63 62 62 62 61 61 61 60 59 57 56 55 55 54 54 54 54 53 52 53 52 52 51 50 49 50 49 46 44 44 45 46 45 44 46 47 49 49 46 41 38 38 39 39 39 38 37 36 36 36 37 38 38 38 37 37 37 36 34 33 32 32 31 28 27 28 28 28 27 26 25 24 23 22 22 21 20 21 23 25 25 26 26 25 24 24 24
59 61 62 62 62 62 62 61 61 60 60 58 58 57 56 55 55 54 54 54 55 54 53 53 52 52 52 51 47 46 46 47 47 46 47 49 49 49 49 48 45 41 41 42 41 40 39 38 37 37 37 38 38 38 38 38 38 38 36 35 33 33 33 32 29 28 29 28 27 27 27 27 26 24 23 22 21 21 22 24 26 26 26 26 25 25 25 25
56 57 59 61 61 62 61 61 61 61 61 60 60 59 58 57 57 56 55 55 55 54 54 54 54 54 55 52 48 48 48 49 49 49 50 51 50 48 48 50 48 44 44 45 44 43 41 40 39 39 39 39 38 37 38 39 40 39 38 36 34 34 33 33 31 29 29 28 27 27 28 28 27 26 24 22 22 21 22 24 26 27 27 26 25 26 27 27
52 54 55 57 58 60 60 60 61 61 61 61 61 61 60 59 58 58 57 56 55 54 54 54 55 55 55 53 49 49 50 51 51 52 52 52 50 48 48 50 50 48 46 46 47 45 43 42 41 41 41 40 38 37 37 38 39 39 39 38 37 36 35 34 33 31 30 29 28 27 27 29 29 27 25 23 22 23 24 25 27 28 28 27 27 27 28 29
50 51 52 53 54 56 57 58 59 60 61 61 61 61 60 59 59 59 58 57 56 55 55 55 56 55 54 52 49 49 50 52 53 53 53 53 51 49 48 49 50 50 49 49 49 47 44 43 43 44 43 41 38 38 38 38 39 39 38 38 37 37 36 35 34 32 31 30 29 28 28 28 29 28 26 25 24 24 25 27 28 29 29 29 29 30 30 30
49 49 50 50 51 52 53 55 57 59 60 60 60 59 59 59 58 58 58 57 57 57 57 58 58 56 54 52 50 49 51 53 55 54 53 53 52 50 49 49 50 52 53 52 49 47 45 44 45 46 44 41 40 40 40 40 40 40 39 38 37 37 36 37 36 34 33 32 31 30 28 28 29 29 28 26 25 26 26 28 28 29 30 31 31 32 32 32
50 48 48 49 49 49 49 50 53 56 57 57 57 57 57 56 57 58 57 57 57 58 59 59 59 57 54 52 51 51 53 55 55 54 54 54 53 51 49 49 50 53 55 53 49 47 46 46 47 47 44 42 42 42 42 42 42 42 40 39 37 36 35 36 37 36 36 34 33 31 30 29 30 30 30 28 26 27 28 29 29 28 29 30 32 33 33 32
51 49 48 47 48 48 48 48 50 52 53 54 54 54 54 54 56 56 56 56 56 58 58 58 59 56 53 53 52 53 54 55 55 54 55 55 53 51 48 48 50 53 55 53 50 47 46 48 49 47 44 43 43 44 44 44 44 43 42 39 37 36 35 36 36 36 37 37 35 33 31 31 31 31 31 29 27 27 28 29 29 28 28 29 31 32 31 31
51 50 48 47 47 47 46 46 47 49 50 51 51 51 52 53 54 54 54 54 54 56 57 57 57 54 51 51 52 54 54 54 55 55 56 54 52 50 48 48 50 52 54 53 52 48 47 51 50 46 44 43 44 45 45 45 45 44 42 40 38 37 36 36 36 37 38 37 36 35 33 33 32 33 33 32 29 28 28 28 29 29 29 29 30 29 29 29
51 50 49 47 46 45 45 45 45 46 48 49 49 49 50 50 51 52 52 52 52 54 55 55 54 51 48 49 52 55 54 54 54 55 55 53 50 49 47 47 48 51 52 53 52 49 50 54 50 45 44 44 45 46 45 46 46 45 42 40 39 37 37 37 37 38 38 36 36 36 35 34 34 34 35 34 31 29 29 30 30 30 30 30 30 29 28 29
50 50 49 48 46 45 43 43 43 43 44 47 48 48 48 48 49 50 50 50 51 53 54 52 51 48 46 48 52 53 53 53 52 52 52 50 48 47 46 46 48 50 52 52 51 50 53 55 49 44 44 44 45 46 46 47 47 45 42 40 39 38 38 38 38 38 38 37 37 36 34 34 35 36 36 35 33 31 31 31 31 31 31 31 31 30 30 30
50 50 49 48 46 45 43 41 40 40 41 44 45 46 47 47 48 48 48 49 50 51 52 50 48 47 45 46 50 51 52 52 49 49 50 48 46 45 45 46 48 50 51 50 48 48 54 55 48 45 44 43 44 46 46 46 45 44 41 40 40 39 39 40 38 38 38 39 39 36 32 31 34 37 37 36 35 33 32 32 32 32 32 33 33 32 31 31
49 49 49 49 47 45 43 41 39 39 39 40 41 43 45 46 47 47 47 48 49 49 49 48 46 45 43 44 48 50 50 48 46 47 47 45 44 44 45 46 48 49 49 47 45 47 54 55 48 46 45 43 44 46 46 44 44 44 42 41 41 41 42 41 39 38 38 40 40 35 30 30 32 35 37 37 36 34 33 33 33 33 33 35 35 34 33 32
48 49 49 49 48 46 44 42 40 39 39 38 38 40 42 44 46 47 47 48 49 47 46 45 43 42 41 42 46 47 46 45 43 44 44 43 43 44 44 46 46 46 46 45 44 46 53 54 49 45 44 43 45 47 45 43 45 45 43 42 42 43 43 41 39 38 37 40 40 34 30 30 32 34 35 36 36 34 33 33 33 33 34 35 36 35 33 32
48 48 48 49 49 48 46 44 42 41 40 39 39 39 40 41 43 46 47 48 48 45 43 42 41 39 38 40 43 44 44 42 41 41 42 42 43 44 44 44 43 44 44 44 44 47 51 54 49 44 44 45 47 47 44 44 45 44 43 43 43 43 43 41 39 37 36 39 39 33 30 31 32 34 34 35 36 34 32 32 33 33 34 35 35 34 33 32
48 48 48 49 50 49 48 46 45 44 42 41 41 41 40 41 42 43 46 47 46 43 41 40 39 37 37 39 41 42 42 41 39 39 41 42 43 44 43 43 43 44 44 44 45 46 49 52 48 44 45 46 45 44 43 43 44 44 43 43 43 43 42 40 38 36 35 38 37 32 30 30 32 34 34 34 34 34 32 32 33 33 34 35 36 35 34 33
48 48 48 49 50 51 49 48 47 46 44 43 43 43 42 42 42 42 44 44 44 43 41 39 39 38 38 40 42 43 42 40 39 39 40 42 43 43 42 42 43 43 43 44 44 44 46 48 47 45 44 44 43 43 43 42 43 43 44 43 43 42 40 38 36 34 35 36 34 31 30 30 31 33 33 32 32 32 32 32 32 34 36 37 37 37 35 33
49 48 48 48 50 51 51 49 47 46 45 44 44 44 44 45 44 42 42 42 42 43 42 40 40 40 40 41 42 42 42 41 40 40 40 41 42 42 41 41 41 42 43 42 42 42 43 45 47 46 44 42 41 41 43 43 42 43 44 43 42 41 38 36 34 34 34 32 31 31 30 30 31 31 31 31 30 30 31 31 33 35 37 38 38 36 34 32
50 48 48 48 49 51 51 49 47 46 45 44 44 44 45 46 44 41 40 41 41 43 43 42 41 41 41 41 41 41 41 40 39 39 40 40 41 41 40 39 40 41 41 40 40 41 43 45 46 46 43 41 40 41 42 42 40 42 44 41 40 40 38 35 33 33 31 29 29 30 30 30 30 30 29 29 29 29 30 32 34 36 36 37 36 35 34 32
51 49 48 47 49 50 50 49 48 46 44 43 43 44 45 44 42 39 39 40 41 43 44 43 42 41 40 40 40 40 40 39 39 38 39 39 40 40 39 38 38 39 40 39 40 41 43 45 44 43 42 41 40 40 41 40 39 40 41 39 40 39 35 33 32 32 30 28 28 28 29 29 29 28 28 28 28 29 31 33 35 35 36 36 34 34 35 34
51 50 48 47 48 49 49 49 48 46 44 43 43 44 43 40 38 38 39 40 42 43 44 44 42 41 41 40 40 40 39 39 38 38 39 39 39 39 39 38 38 39 40 40 40 42 44 44 42 40 42 42 42 40 38 38 38 37 37 39 39 36 33 32 32 32 30 27 26 27 27 28 27 28 27 26 27 29 32 34 34 35 36 34 33 34 34 34
52 50 48 48 49 48 48 49 48 46 44 43 43 43 40 36 35 37 38 39 41 42 43 44 43 42 41 41 41 40 40 40 39 39 39 38 38 38 38 37 37 38 40 40 40 41 42 43 40 40 42 43 41 38 36 37 36 34 35 38 36 33 32 32 32 31 29 27 26 26 26 26 27 28 27 26 28 31 33 34 35 35 35 33 32 33 33 34
52 50 49 49 49 48 48 48 48 46 44 42 42 40 36 33 34 35 36 37 39 41 42 44 45 43 43 43 42 41 40 41 41 40 39 38 38 38 37 36 36 37 38 39 39 40 41 41 39 39 41 41 39 37 36 36 35 34 35 34 32 31 32 32 31 30 28 27 26 25 24 26 28 28 27 28 30 32 34 35 35 36 35 34 33 33 34 34
52 50 49 49 48 47 47 48 47 46 44 42 40 37 33 32 32 34 34 35 37 39 42 45 46 45 45 45 44 42 41 42 42 40 40 40 39 38 37 37 36 37 37 37 38 39 39 38 38 39 40 39 37 36 36 35 33 33 33 31 30 31 31 30 29 29 28 27 26 24 25 27 30 30 29 30 32 33 36 36 36 36 36 35 34 34 34 34
51 51 50 49 48 47 47 47 46 45 43 41 39 36 32 30 31 33 33 34 36 37 41 45 46 47 47 46 45 44 43 43 42 42 42 41 39 38 37 37 36 36 36 36 36 37 37 38 39 39 38 37 37 36 36 33 31 31 31 30 30 30 30 29 28 27 27 26 24 24 26 30 32 31 30 31 32 35 37 37 36 37 37 37 36 35 35 33
51 51 51 49 48 48 48 47 46 45 43 40 37 34 31 30 32 33 33 34 35 37 40 43 45 47 48 47 46 46 45 44 43 43 43 41 39 37 35 34 35 35 35 35 35 36 37 38 38 37 36 36 36 35 33 31 30 30 30 30 29 28 28 27 26 25 25 25 25 26 28 31 33 33 32 32 34 37 37 37 37 37 37 37 37 36 35 32
51 51 51 49 48 48 48 48 47 46 42 39 37 34 30 31 33 33 33 34 36 38 40 42 44 46 47 47 47 46 45 44 43 43 42 41 39 36 33 33 34 34 35 36 36 36 36 36 36 36 36 36 34 33 32 31 31 30 30 29 28 26 26 25 24 24 26 27 28 29 30 33 34 34 33 34 35 37 37 37 38 37 37 37 37 37 35 32
50 51 50 49 49 49 49 48 47 44 40 37 36 34 31 32 34 34 34 35 35 38 40 41 43 44 45 46 47 46 45 43 43 43 44 42 39 36 34 33 33 35 37 37 38 38 38 37 37 36 35 34 32 32 32 31 31 30 28 28 27 26 25 24 25 26 28 29 30 31 31 33 35 35 35 35 35 37 37 38 39 37 36 36 36 36 35 33
50 50 50 49 49 50 49 48 46 42 39 38 37 35 33 34 34 34 34 34 35 37 39 40 41 42 42 44 45 45 44 43 44 45 45 43 40 37 35 34 34 36 38 39 39 40 40 39 37 34 33 31 30 31 31 30 29 28 27 27 28 26 25 26 27 28 30 32 32 31 31 32 34 35 35 35 35 36 38 38 38 37 35 36 36 34 30 27
49 49 50 50 50 50 48 47 45 41 39 39 38 36 35 34 34 33 34 34 34 35 36 37 38 39 40 41 42 42 42 42 44 46 46 43 40 38 37 35 35 36 38 39 39 40 41 39 35 32 31 30 29 30 30 28 27 28 28 28 28 27 26 27 28 30 32 32 32 31 31 31 33 34 34 34 34 35 36 37 36 36 35 35 34 30 23 20
49 49 50 50 50 48 47 46 44 42 41 40 39 38 36 34 33 33 33 32 32 32 33 34 35 35 36 37 38 38 39 41 44 45 45 43 40 39 38 37 36 37 39 40 39 40 39 36 32 31 30 30 30 29 28 27 27 28 29 28 27 26 26 27 29 31 32 32 32 31 32 32 33 34 34 34 34 34 35 35 35 35 34 33 33 29 24 24
49 49 50 50 49 48 48 47 45 43 42 41 40 39 36 33 33 33 31 29 28 29 31 32 32 32 32 33 33 33 34 37 41 43 44 42 40 40 40 39 39 39 40 40 38 38 37 33 30 30 31 31 31 29 28 27 27 28 29 28 26 25 26 28 30 31 32 32 32 32 33 33 33 34 35 34 34 34 34 34 34 33 33 32 32 31 28 27
49 49 50 51 50 49 49 48 46 44 43 42 40 38 34 32 32 31 29 28 28 29 30 31 30 30 30 29 29 29 31 34 37 40 42 41 40 41 42 41 42 42 41 40 38 36 35 32 31 32 33 33 32 31 30 28 28 28 29 28 26 27 28 30 31 32 32 33 34 33 33 33 33 34 35 35 35 35 34 34 33 32 32 32 31 30 29 29
49 50 51 51 50 50 50 49 46 44 44 42 39 35 31 29 29 29 28 28 28 29 30 30 29 29 28 28 28 29 30 32 34 37 39 40 40 42 43 43 43 43 41 40 38 36 34 33 34 35 35 35 34 32 31 30 29 29 28 28 27 29 31 32 33 33 33 34 34 33 33 32 32 33 34 34 35 35 34 33 32 31 31 31 31 30 30 31
50 51 52 52 51 51 50 48 46 45 44 41 36 32 29 28 29 30 29 27 27 27 28 27 26 26 27 29 29 29 31 33 35 37 38 39 40 42 43 43 43 43 41 39 37 36 36 36 36 37 36 35 34 34 32 31 30 29 29 28 29 31 33 34 34 35 36 36 35 33 32 32 32 33 33 34 35 34 33 32 31 30 30 30 31 31 31 31
51 52 52 52 51 51 50 47 46 45 43 39 34 32 31 32 32 31 29 27 24 23 23 24 24 26 29 30 30 29 31 34 36 37 38 39 40 41 42 42 42 42 40 39 38 38 38 38 37 37 37 36 36 35 34 32 31 30 30 29 31 33 34 35 35 36 37 36 34 33 32 31 31 32 33 34 34 33 32 32 30 29 29 30 31 32 32 33
52 52 53 52 51 50 49 47 46 44 41 37 35 35 35 34 32 31 29 27 23 21 22 24 26 29 31 30 29 28 30 33 35 37 38 39 39 39 40 41 41 41 41 40 40 40 40 39 38 39 39 39 37 36 34 32 32 32 31 31 33 35 36 36 36 36 35 35 33 32 31 31 31 32 33 33 32 32 31 30 29 29 30 31 33 34 34 36
Wind_Direction
239 240 240 241 242 242 242 242 243 243 244 246 248 250 251 252 254 256 258 259 260 262 263 265 267 268 270 271 273 274 275 276 277 278 279 281 282 284 286 289 292 294 296 298 301 303 305 307 309 311 313 315 316 318 320 322 323 322 321 322 323 326 330 328 327 329 334 334 329 328 335 340 339 336 334 334 329 325 326 321 313 310 307 305 298 282 278 278
239 239 239 240 241 242 242 242 243 243 243 244 246 247 249 251 252 254 256 258 260 261 262 263 265 267 268 270 271 272 273 274 275 276 276 277 277 278 279 281 284 287 290 292 295 298 300 303 305 307 309 310 312 314 316 317 318 317 317 317 319 322 325 324 325 329 333 334 331 327 335 342 341 336 334 335 337 334 331 325 316 313 309 305 302 289 279 277
239 239 239 239 240 241 242 243 243 243 243 244 245 245 247 248 250 252 254 256 258 260 261 262 264 265 267 269 270 271 272 273 274 274 274 274 275 275 276 276 278 281 284 286 289 291 294 298 300 302 304 306 308 310 312 313 312 312 313 314 316 320 322 322 323 328 330 332 331 326 329 337 339 337 335 337 339 337 334 329 325 321 311 303 300 295 285 275
240 240 240 239 239 240 241 242 243 243 244 244 245 245 246 247 248 250 251 253 255 258 260 261 262 264 265 267 269 270 271 272 273 273 273 274 274 275 274 274 275 276 278 279 282 285 289 293 296 298 300 302 303 305 306 307 307 308 310 312 316 320 320 320 322 326 329 330 331 328 326 331 335 336 336 336 337 337 335 329 327 324 312 297 291 288 285 279
240 240 240 240 240 240 240 241 242 243 243 244 245 245 246 247 248 249 250 251 253 255 258 260 261 262 264 266 268 269 270 271 272 272 272 273 273 274 273 274 274 274 274 275 278 281 284 288 291 294 296 297 298 299 300 302 304 305 308 311 316 317 317 318 322 325 328 330 331 331 330 330 332 334 334 335 337 336 334 329 325 324 316 300 288 281 280 281
242 241 241 240 241 240 241 241 241 242 243 244 244 245 246 247 248 249 249 250 251 253 255 258 260 261 263 264 266 268 269 269 271 271 272 272 273 273 273 273 273 273 273 274 276 280 283 284 286 289 291 292 293 294 296 298 300 303 306 310 313 313 314 317 322 325 328 330 330 331 331 330 331 333 333 335 338 337 333 329 326 324 319 307 289 279 277 277
244 243 242 241 241 241 241 241 242 242 242 243 244 245 245 246 247 248 249 250 251 252 253 255 258 260 262 263 265 266 267 269 270 270 270 271 272 272 272 272 272 272 273 273 276 280 281 282 282 284 285 287 289 291 293 295 298 302 305 308 309 310 313 317 321 324 326 327 328 328 328 328 330 333 332 335 338 338 332 328 327 326 323 313 294 278 272 270
244 244 243 243 242 242 242 242 242 243 243 243 244 245 245 246 247 248 249 250 251 252 253 254 256 257 259 261 263 265 267 268 269 269 269 270 270 271 271 272 272 272 272 273 275 277 278 278 279 280 282 284 286 289 291 294 297 300 303 305 306 308 312 316 319 321 323 323 324 325 325 326 329 331 331 333 336 337 332 326 323 323 322 316 302 284 275 269
244 244 244 244 243 243 243 243 243 243 243 244 244 245 246 246 246 247 248 249 250 252 253 253 254 256 257 259 261 263 266 267 268 269 269 269 269 269 270 271 272 272 272 273 275 275 275 276 277 279 280 283 285 288 290 293 295 298 300 302 304 308 310 313 316 318 320 320 321 322 322 324 327 328 328 330 333 333 328 322 316 312 310 309 303 293 287 284
243 244 244 244 244 244 244 243 243 243 243 244 244 245 246 247 247 247 247 248 249 250 252 253 253 255 256 257 259 261 264 266 268 269 269 268 268 268 269 270 272 272 273 274 275 276 276 276 277 279 280 282 284 287 289 291 293 295 297 300 303 306 308 310 314 316 317 318 319 319 320 323 325 325 323 324 328 327 320 315 311 306 301 298 296 293 293 295
243 243 243 244 244 244 244 244 244 244 243 243 244 244 245 246 247 248 248 248 248 249 250 252 253 254 255 256 257 259 262 265 267 268 269 268 267 267 268 269 270 271 273 274 276 278 278 279 279 280 281 283 284 286 288 289 291 293 295 298 301 303 306 309 313 315 316 316 317 318 318 321 323 322 320 320 322 320 313 309 306 304 301 297 295 292 289 288
242 243 243 243 243 244 244 244 244 244 244 244 244 244 245 246 246 247 248 248 248 248 249 250 251 253 254 255 256 258 260 263 265 266 267 268 268 268 268 268 269 271 273 275 277 278 280 281 282 282 283 284 285 286 287 288 290 291 293 296 299 302 305 309 312 314 315 315 316 316 318 321 322 320 318 317 316 315 313 311 307 303 299 296 295 293 291 287
242 243 243 243 243 243 244 244 244 244 244 244 244 245 245 245 246 247 247 248 248 248 248 249 250 252 253 254 255 257 259 261 263 264 265 268 269 270 269 269 270 272 274 276 277 278 279 281 282 283 284 284 285 286 287 288 289 290 293 296 299 302 305 308 311 312 313 314 314 315 318 320 319 317 315 315 313 311 311 313 311 305 298 294 292 293 297 295
243 243 243 243 243 243 243 244 244 244 244 244 245 245 245 245 246 247 247 248 249 249 249 249 250 251 252 253 255 256 258 260 261 262 264 267 270 271 271 270 271 272 274 276 277 277 278 279 280 281 282 283 284 285 286 287 289 291 294 297 299 301 304 306 309 311 312 312 312 315 317 318 316 313 312 312 312 309 308 310 310 307 301 297 293 291 296 300
244 243 243 243 243 243 243 243 244 244 244 244 245 245 245 246 246 247 248 248 249 249 249 250 250 250 251 252 254 255 256 258 260 262 265 268 269 271 271 271 271 272 273 274 274 275 276 276 277 279 280 281 282 283 285 287 289 292 294 296 299 301 302 304 308 310 310 310 311 314 316 315 313 311 310 311 313 310 307 308 307 305 301 299 297 294 295 298
245 244 244 244 244 244 244 244 244 244 244 245 245 245 245 246 246 247 248 248 249 249 250 250 250 251 251 252 252 253 255 257 260 263 265 265 266 267 270 270 270 270 271 271 270 271 272 273 274 276 278 279 280 282 284 286 288 290 292 295 298 300 301 303 307 308 308 308 310 312 313 312 310 310 310 312 313 310 306 304 302 301 298 296 296 297 298 299
247 246 245 245 244 244 244 244 245 245 245 245 245 245 245 246 246 247 247 248 248 249 249 250 250 251 251 251 252 254 256 257 259 261 261 261 262 265 268 270 269 268 268 268 268 268 269 270 271 273 274 275 277 280 284 286 287 288 290 293 295 297 298 300 304 305 304 306 308 310 310 309 308 309 311 312 313 310 306 303 300 299 298 295 293 295 301 302
248 247 247 246 246 245 245 245 245 245 245 245 245 245 245 246 246 247 247 247 248 249 250 250 251 251 252 252 252 254 256 257 257 258 259 260 262 264 267 269 269 269 268 268 268 268 269 270 271 271 271 272 275 279 282 284 286 288 290 292 293 294 295 298 300 301 301 303 306 307 307 306 306 308 311 312 311 309 307 304 301 299 299 298 295 295 300 303
249 248 248 247 247 247 246 246 245 245 245 245 245 246 246 246 247 247 248 248 249 250 250 251 251 252 253 253 253 254 256 257 257 257 258 260 261 262 264 267 269 269 268 268 268 269 270 271 271 271 270 271 274 276 278 280 283 285 288 290 291 291 293 295 297 299 300 302 303 303 303 303 304 306 309 311 310 308 306 303 302 300 300 301 300 300 301 303
249 249 249 248 248 247 247 247 246 246 245 245 245 246 246 247 248 248 249 249 250 251 251 251 252 252 253 254 254 255 256 257 257 257 258 259 260 260 262 264 267 267 266 265 266 268 270 271 271 271 271 273 275 275 275 275 277 279 281 284 286 289 292 294 295 297 298 299 300 300 300 302 304 306 307 309 308 306 304 302 301 300 301 302 303 303 303 301
249 249 249 249 249 248 248 247 247 246 246 245 245 246 247 247 248 249 249 250 250 250 250 251 251 251 252 254 254 255 255 256 257 257 258 258 259 259 260 262 264 265 265 265 267 269 270 271 271 271 273 274 274 273 273 273 274 275 276 278 281 286 290 293 294 296 296 296 297 297 300 303 305 306 306 307 308 306 303 300 299 301 303 305 305 304 302 300
247 248 249 249 249 249 248 248 247 246 246 245 245 246 246 247 248 248 248 248 248 249 249 250 250 251 252 253 253 253 254 255 256 257 257 257 258 258 259 260 262 263 265 266 267 268 270 270 269 270 272 274 273 273 272 272 273 274 275 277 281 285 288 290 293 294 294 294 295 297 301 303 303 304 304 305 307 306 302 299 299 301 303 304 304 304 302 299
246 247 248 249 249 249 248 248 247 246 246 245 245 245 245 246 246 247 247 247 248 249 249 249 250 250 251 252 252 253 253 254 255 256 256 256 257 257 258 258 260 261 264 266 266 266 266 266 267 269 271 273 273 272 272 272 273 274 276 278 281 284 285 286 289 290 291 293 295 298 300 300 301 302 302 304 305 303 300 299 299 299 300 302 303 303 301 297
244 245 247 248 249 249 248 248 247 246 245 245 244 244 244 244 245 246 246 247 247 248 249 249 250 250 251 252 251 251 251 252 253 254 255 256 256 257 257 257 258 260 262 264 265 264 264 264 266 268 270 270 270 270 271 272 273 274 276 279 281 282 283 284 284 285 287 291 295 297 298 299 301 302 301 303 304 302 300 298 298 299 300 302 304 302 298 294
243 244 245 246 248 248 248 248 248 247 245 244 244 243 243 243 244 245 245 245 246 247 248 248 249 249 249 250 250 250 250 250 251 253 255 256 257 257 257 256 257 258 260 261 263 263 262 264 266 268 268 268 268 270 271 271 272 274 277 279 280 281 281 281 281 282 285 289 291 292 295 299 302 301 301 303 304 303 301 300 300 300 302 303 302 300 297 294
242 242 243 244 246 247 248 248 247 246 245 244 243 242 242 243 243 243 244 244 244 246 247 247 248 248 247 248 249 250 251 251 251 253 255 256 256 257 256 255 254 255 257 258 260 262 262 264 266 266 266 266 267 268 269 270 273 275 278 279 279 280 279 278 279 281 284 286 286 289 295 300 301 300 300 302 303 303 302 302 301 302 303 303 300 297 295 293
241 241 241 242 243 245 246 246 246 245 244 243 242 242 242 242 242 243 243 243 243 244 246 246 246 246 246 247 249 250 250 251 251 253 254 256 256 255 254 253 252 253 255 257 259 261 262 263 264 264 264 264 265 266 267 270 273 275 276 276 276 275 275 275 276 279 282 284 285 290 298 300 299 298 300 302 302 303 303 302 302 302 303 301 298 295 292 292
241 240 240 240 241 242 243 244 244 243 243 243 243 242 242 242 242 242 242 243 243 243 245 246 245 246 246 247 249 250 250 252 252 252 254 255 255 254 252 252 252 253 255 256 257 258 260 262 262 262 263 264 264 265 266 268 270 271 272 271 272 272 271 272 274 277 281 283 286 293 299 298 294 295 298 300 300 301 301 301 301 301 300 297 294 292 291 290
240 239 238 238 239 239 240 241 242 242 242 243 243 243 243 242 242 242 241 242 242 242 244 245 245 245 245 246 248 250 251 251 251 252 253 253 253 252 251 251 252 253 253 253 253 254 258 261 261 261 263 262 262 263 265 265 266 268 269 269 270 270 271 273 276 279 282 284 288 295 298 295 293 293 295 296 297 298 298 299 299 297 296 293 291 291 291 291
240 238 237 237 237 237 238 239 240 241 242 243 244 244 244 243 243 242 241 241 242 242 243 244 245 244 245 246 248 250 251 250 250 251 252 251 251 250 250 250 250 250 250 250 250 252 256 259 260 260 260 260 261 264 265 265 266 268 269 269 269 270 273 275 278 282 285 285 288 294 295 294 293 292 291 293 295 297 298 297 295 294 293 291 291 291 291 293
239 238 237 236 236 237 237 238 239 241 243 245 245 245 245 245 244 243 242 241 242 242 242 243 243 243 242 243 245 246 247 247 247 247 249 249 248 248 247 247 247 248 248 248 249 251 255 259 261 260 259 260 262 265 265 265 266 268 268 268 269 270 273 277 281 285 285 283 286 292 293 291 290 289 291 294 295 297 297 294 293 294 293 292 292 292 293 295
238 237 237 236 235 236 236 237 239 241 243 245 246 246 245 246 246 245 244 243 242 241 240 240 241 239 239 239 240 241 241 241 241 241 243 246 247 247 246 246 246 247 248 248 250 251 254 259 261 259 258 260 262 262 263 263 264 266 266 267 269 271 275 279 282 283 281 283 289 293 291 289 288 288 291 293 293 294 293 293 294 294 293 293 292 294 296 299
237 236 236 235 235 235 236 237 238 240 243 245 246 246 246 246 246 246 246 245 242 239 238 238 238 237 237 237 239 240 240 239 239 239 240 243 245 245 245 244 245 246 247 249 251 252 254 256 258 258 257 257 259 260 262 262 263 265 266 268 271 274 276 277 278 278 280 286 291 289 288 287 286 287 289 289 290 292 293 295 295 293 292 292 293 297 301 303
235 235 235 235 235 235 236 237 238 240 242 243 245 246 246 246 246 247 248 246 242 239 237 236 236 236 237 238 239 240 241 241 241 240 241 242 244 244 244 243 244 246 247 248 250 251 252 253 254 257 259 258 258 259 261 263 265 266 268 271 272 273 274 276 277 278 280 282 283 284 286 286 285 287 287 289 291 293 295 295 292 291 292 293 297 302 305 304
234 234 234 234 235 235 235 236 237 238 240 242 244 245 245 246 247 248 249 247 242 238 236 235 235 235 236 238 238 238 240 240 241 242 243 244 244 245 244 242 242 244 246 246 247 248 249 251 253 257 260 260 258 258 260 263 264 265 270 272 271 272 277 279 279 278 277 277 278 281 282 283 285 287 287 291 294 294 293 290 289 291 293 296 304 308 307 307
232 233 233 234 234 234 234 235 236 237 239 241 244 244 245 246 248 249 249 246 242 238 235 234 234 234 235 236 237 238 238 239 240 242 244 244 245 245 243 241 240 242 244 244 245 246 248 251 252 254 256 257 257 258 260 262 263 266 269 270 271 277 280 279 278 278 279 281 281 281 282 284 286 286 288 292 293 291 288 288 290 293 295 302 309 311 311 311
231 231 232 232 233 234 233 234 235 236 238 240 242 244 245 247 248 248 248 245 241 238 235 233 233 233 233 235 236 236 237 238 238 240 242 244 245 245 244 242 241 241 243 245 246 248 249 252 253 253 255 257 259 262 263 264 266 267 266 268 274 279 279 278 279 281 284 285 284 284 285 287 286 285 288 289 287 286 287 290 293 295 300 307 311 313 315 314
230 230 230 231 233 233 232 232 233 234 236 239 241 243 245 246 247 248 247 244 241 237 234 233 232 232 232 233 234 234 235 237 238 239 241 242 243 243 242 241 240 241 243 245 246 248 249 251 253 254 255 258 261 263 263 263 265 265 266 271 275 276 276 278 280 282 284 284 283 285 287 286 284 284 286 287 286 288 290 292 296 300 305 309 312 315 315 315
228 228 229 230 231 231 231 231 232 233 235 237 239 241 243 245 247 247 246 243 240 236 233 232 231 231 232 232 233 233 234 236 238 240 241 243 243 243 242 239 238 239 241 243 246 248 250 251 252 253 255 259 261 261 261 262 264 266 268 272 273 272 274 276 277 279 280 282 285 290 291 287 285 286 288 289 290 290 291 295 300 305 308 309 311 313 312 315
227 227 227 228 229 230 230 229 230 231 233 235 236 238 241 243 245 245 242 240 239 236 234 232 231 231 232 233 233 233 233 235 236 238 241 243 245 246 245 243 242 241 241 244 246 248 249 249 249 251 254 257 258 259 261 264 266 267 268 269 269 270 272 273 275 278 281 285 289 291 289 286 286 287 288 289 290 290 293 299 304 305 306 308 309 310 310 315
226 226 226 226 228 228 228 227 227 228 230 231 233 236 239 241 242 242 240 238 237 235 234 233 231 232 233 233 234 234 234 234 235 237 240 243 245 247 249 249 248 246 245 244 244 246 247 249 251 254 255 255 257 260 262 265 266 266 266 267 268 269 272 275 279 282 285 287 286 285 284 284 284 286 288 289 290 292 297 301 302 303 304 306 307 308 310 314
225 225 224 225 226 227 226 225 225 227 228 228 230 234 237 239 241 240 238 237 236 235 234 233 232 232 233 234 235 235 235 235 236 238 240 242 244 246 248 248 247 246 245 243 242 243 245 248 251 252 253 254 257 260 262 264 264 265 266 268 270 273 275 279 283 285 285 284 282 281 281 281 284 286 289 291 292 295 298 298 299 302 305 305 305 305 307 311
224 224 223 223 224 225 224 224 224 225 226 227 229 232 235 238 240 239 238 236 236 236 236 234 233 233 233 234 235 235 236 236 237 239 240 241 242 243 243 243 242 242 242 242 240 239 240 242 244 246 249 253 255 258 260 262 263 265 268 271 274 275 278 281 282 281 279 277 275 275 276 279 283 286 288 291 293 294 295 295 299 305 306 304 301 302 308 319
223 222 221 221 222 223 223 223 223 223 224 225 227 230 235 239 240 239 238 237 236 237 237 236 235 235 234 234 235 235 235 236 237 238 239 240 240 240 241 241 240 240 241 242 242 241 242 242 243 245 249 252 255 256 258 261 264 267 270 271 272 274 275 277 276 274 273 273 274 275 278 280 282 284 287 290 291 291 292 295 300 303 302 299 297 303 316 326
221 221 220 220 221 221 222 222 221 221 221 223 225 229 234 239 241 240 239 238 238 239 240 240 239 238 236 236 236 236 235 235 236 238 239 240 240 240 240 240 239 239 241 242 242 243 245 246 247 248 250 252 254 256 259 263 266 268 268 268 270 273 275 275 275 275 276 278 280 282 282 280 280 281 283 284 286 288 291 295 297 298 296 295 296 302 309 303
219 219 219 219 220 220 220 220 219 219 220 221 224 227 232 238 240 239 239 239 240 241 242 243 242 242 241 239 238 237 236 235 236 237 238 239 239 239 239 239 238 238 239 240 241 243 247 249 251 251 251 252 252 254 257 260 263 265 266 267 271 275 278 280 281 280 281 284 287 286 283 281 279 280 281 283 285 287 291 294 295 294 293 293 295 298 296 287
218 218 218 218 218 217 217 217 216 217 218 220 223 226 231 236 238 237 236 236 237 238 240 241 241 241 242 241 240 239 238 237 237 237 238 238 238 238 238 238 238 237 238 239 241 243 247 250 251 251 250 251 252 252 253 255 258 263 266 268 272 276 279 281 281 281 283 286 286 284 282 282 282 284 285 287 289 291 293 293 293 292 292 292 294 295 293 288
216 216 216 216 216 214 215 215 214 215 217 219 222 225 231 236 238 238 238 236 235 235 235 236 236 236 237 237 237 236 236 237 237 237 237 237 236 237 237 237 238 238 238 238 239 241 244 247 248 248 247 248 249 249 249 250 253 259 264 268 272 275 277 278 278 279 281 282 281 281 282 283 285 286 287 289 290 290 290 290 292 291 291 292 292 292 290 289
214 214 214 215 213 212 213 213 213 214 216 218 220 224 230 235 238 239 239 236 235 235 235 234 234 232 232 232 232 231 231 232 234 235 236 235 234 235 236 237 239 240 240 239 239 239 240 242 243 244 244 245 246 247 247 248 250 255 261 267 272 274 274 274 276 277 278 278 279 282 284 285 286 285 286 286 286 286 288 290 292 291 290 290 289 289 290 292
212 213 213 213 211 211 211 211 211 214 216 217 219 223 226 229 232 235 236 236 237 238 239 238 236 233 230 228 228 229 230 230 231 231 232 232 233 234 235 236 238 241 242 243 241 239 239 239 239 242 244 245 247 249 249 250 252 255 259 264 268 270 270 271 273 274 275 278 281 284 285 286 286 286 286 284 284 286 289 289 289 289 290 290 291 292 295 299
210 211 212 211 209 209 210 209 210 213 215 214 216 219 220 222 227 232 234 235 236 240 241 238 234 231 229 227 225 226 230 233 233 232 230 230 231 233 234 235 236 239 242 243 242 240 239 239 240 241 243 244 245 247 248 250 253 257 260 263 264 265 266 268 269 271 274 278 283 285 285 285 285 284 283 283 284 285 286 287 289 292 294 295 297 299 303 307
209 210 210 209 207 207 208 208 209 212 212 212 214 216 218 222 227 233 237 237 237 240 239 234 230 229 228 226 224 224 229 234 236 237 234 232 230 232 234 235 236 238 240 241 242 241 240 240 241 241 242 242 243 244 246 249 253 256 259 261 261 262 263 265 268 271 274 278 281 282 281 281 280 279 280 282 284 284 287 290 295 297 299 301 303 306 309 312
Height
10960 10962 10963 10964 10965 10966 10968 10970 10971 10972 10973 10974 10975 10976 10977 10977 10978 10979 10979 10980 10981 10982 10983 10984 10984 10985 10985 10986 10986 10987 10988 10989 10991 10992 10992 10992 10992 10993 10993 10992 10992 10991 10990 10988 10989 10990 10989 10989 10989 10989 10989 10989 10989 10989 10989 10988 10987 10986 10986 10985 10985 10984 10983 10983 10983 10982 10980 10978 10977 10976 10974 10973 10972 10971 10969 10968 10966 10965 10963 10962 10961 10959 10958 10957 10956 10955 10955 10955
10957 10958 10960 10961 10962 10963 10964 10966 10968 10969 10971 10972 10972 10973 10974 10975 10976 10976 10977 10978 10979 10980 10980 10981 10982 10982 10983 10983 10984 10985 10986 10987 10989 10990 10990 10990 10991 10991 10991 10991 10991 10991 10989 10987 10987 10989 10989 10989 10989 10989 10989 10989 10988 10988 10988 10987 10987 10987 10986 10985 10984 10983 10982 10982 10982 10981 10979 10977 10976 10975 10973 10972 10971 10969 10968 10966 10964 10963 10962 10961 10960 10958 10957 10956 10955 10954 10954 10954
10953 10955 10956 10958 10959 10960 10961 10962 10964 10966 10967 10969 10970 10971 10972 10972 10973 10974 10975 10975 10976 10977 10978 10979 10979 10980 10981 10981 10981 10982 10983 10985 10987 10988 10988 10988 10989 10989 10990 10990 10990 10990 10989 10987 10986 10987 10989 10988 10988 10988 10988 10988 10988 10987 10987 10986 10986 10986 10985 10984 10983 10982 10981 10981 10980 10979 10978 10976 10975 10974 10973 10971 10969 10968 10967 10965 10963 10962 10960 10959 10959 10957 10956 10955 10954 10953 10953 10953
10950 10951 10953 10954 10956 10957 10958 10959 10961 10962 10964 10965 10966 10968 10969 10970 10971 10972 10973 10973 10974 10974 10975 10976 10977 10978 10978 10979 10979 10980 10981 10982 10984 10985 10986 10986 10987 10988 10988 10989 10989 10989 10988 10986 10985 10986 10989 10988 10987 10987 10987 10987 10987 10987 10986 10986 10985 10984 10984 10983 10981 10980 10979 10979 10978 10977 10976 10975 10973 10972 10971 10970 10968 10966 10965 10964 10963 10961 10960 10958 10957 10956 10956 10955 10954 10953 10953 10953
10946 10947 10949 10951 10952 10954 10955 10956 10957 10959 10960 10962 10963 10964 10966 10967 10968 10969 10970 10971 10972 10972 10973 10973 10974 10975 10976 10976 10976 10977 10978 10979 10981 10983 10983 10984 10984 10985 10986 10987 10987 10987 10987 10984 10983 10985 10988 10988 10987 10986 10986 10986 10986 10986 10986 10985 10984 10983 10982 10981 10980 10979 10978 10977 10976 10976 10974 10973 10972 10970 10970 10969 10967 10965 10964 10963 10962 10961 10960 10959 10957 10956 10954 10954 10953 10953 10953 10952
10942 10943 10945 10947 10948 10950 10951 10953 10954 10956 10957 10959 10960 10961 10963 10964 10965 10966 10967 10968 10969 10970 10970 10971 10972 10973 10973 10974 10974 10974 10975 10976 10978 10980 10981 10981 10981 10982 10983 10984 10985 10985 10985 10983 10982 10984 10987 10987 10986 10985 10984 10984 10984 10984 10984 10983 10983 10982 10981 10980 10979 10978 10977 10976 10975 10974 10973 10972 10970 10969 10968 10967 10966 10964 10963 10962 10961 10960 10959 10958 10957 10956 10954 10953 10953 10952 10952 10952
10937 10939 10941 10943 10944 10946 10948 10949 10951 10952 10954 10955 10957 10958 10960 10961 10962 10963 10964 10965 10966 10968 10968 10969 10969 10970 10971 10971 10971 10971 10972 10973 10975 10976 10978 10978 10979 10979 10980 10982 10983 10983 10982 10981 10981 10983 10985 10985 10985 10984 10983 10982 10981 10981 10982 10982 10981 10980 10979 10979 10978 10977 10976 10975 10974 10973 10972 10971 10969 10968 10967 10966 10965 10963 10962 10961 10960 10960 10958 10957 10956 10955 10954 10953 10952 10951 10951 10951
10933 10935 10937 10939 10940 10942 10944 10946 10947 10949 10951 10952 10954 10955 10956 10958 10959 10960 10962 10963 10963 10964 10966 10966 10967 10968 10969 10969 10969 10969 10969 10970 10972 10972 10974 10975 10975 10976 10977 10979 10980 10980 10980 10979 10980 10982 10983 10983 10983 10982 10981 10980 10979 10979 10979 10979 10979 10979 10978 10977 10976 10975 10974 10973 10972 10972 10971 10970 10969 10967 10966 10965 10964 10963 10961 10960 10960 10959 10958 10957 10956 10955 10953 10952 10951 10950 10950 10950
10929 10931 10933 10934 10936 10938 10940 10942 10944 10945 10947 10949 10950 10952 10953 10955 10956 10957 10959 10960 10961 10961 10962 10964 10964 10965 10966 10967 10967 10966 10966 10968 10968 10968 10970 10972 10972 10973 10974 10977 10978 10977 10977 10977 10979 10980 10981 10981 10980 10980 10979 10978 10978 10977 10977 10977 10977 10977 10977 10976 10975 10973 10972 10972 10972 10971 10970 10969 10968 10967 10965 10964 10963 10962 10961 10960 10959 10958 10958 10957 10956 10955 10954 10952 10951 10950 10949 10949
10923 10925 10928 10930 10932 10934 10936 10938 10940 10942 10944 10945 10947 10948 10950 10951 10952 10954 10955 10957 10958 10958 10959 10960 10961 10962 10963 10964 10964 10964 10965 10965 10965 10965 10965 10967 10968 10969 10972 10974 10975 10974 10975 10975 10976 10977 10978 10979 10978 10978 10977 10977 10976 10975 10975 10974 10974 10975 10975 10975 10973 10972 10971 10971 10971 10970 10969 10967 10967 10965 10964 10962 10961 10961 10960 10959 10958 10957 10956 10956 10956 10955 10954 10953 10951 10950 10948 10948
10917 10920 10922 10925 10927 10929 10931 10934 10936 10938 10940 10942 10943 10945 10946 10948 10949 10950 10952 10954 10954 10955 10956 10956 10957 10959 10960 10961 10961 10961 10964 10963 10962 10962 10961 10961 10963 10966 10968 10971 10972 10971 10971 10972 10973 10974 10975 10975 10975 10975 10975 10974 10974 10973 10973 10972 10972 10972 10973 10972 10972 10971 10970 10970 10970 10969 10968 10966 10965 10964 10962 10961 10960 10959 10958 10958 10957 10956 10955 10954 10954 10954 10953 10952 10951 10949 10948 10948
10912 10914 10916 10919 10922 10924 10926 10929 10931 10933 10935 10938 10939 10941 10943 10944 10945 10946 10948 10949 10951 10951 10952 10953 10954 10955 10956 10958 10957 10960 10962 10961 10959 10959 10957 10957 10958 10961 10965 10968 10969 10969 10969 10970 10971 10971 10971 10971 10972 10972 10972 10972 10971 10971 10970 10970 10969 10969 10970 10970 10970 10970 10969 10969 10968 10968 10967 10965 10964 10963 10961 10959 10957 10957 10957 10956 10955 10954 10953 10952 10952 10952 10951 10950 10949 10948 10947 10947
10906 10908 10911 10913 10916 10918 10921 10923 10926 10928 10931 10933 10935 10937 10939 10940 10941 10942 10943 10945 10947 10948 10949 10950 10951 10952 10953 10953 10955 10959 10959 10958 10957 10955 10955 10955 10955 10957 10961 10965 10967 10967 10967 10968 10968 10968 10969 10969 10969 10969 10968 10968 10968 10967 10967 10967 10966 10967 10967 10969 10969 10968 10968 10968 10967 10966 10964 10963 10962 10961 10960 10958 10956 10955 10955 10954 10954 10953 10951 10950 10949 10949 10948 10948 10947 10946 10945 10945
10900 10902 10905 10907 10910 10913 10915 10917 10920 10923 10926 10928 10930 10932 10934 10936 10937 10937 10939 10942 10944 10944 10945 10947 10947 10949 10949 10949 10953 10957 10956 10955 10954 10952 10953 10954 10952 10952 10955 10961 10964 10965 10965 10965 10965 10965 10966 10967 10966 10966 10965 10965 10964 10964 10964 10964 10963 10964 10965 10966 10966 10966 10966 10966 10965 10963 10962 10960 10960 10960 10958 10957 10956 10954 10953 10953 10952 10951 10949 10948 10947 10946 10946 10945 10945 10944 10943 10942
10893 10896 10899 10901 10904 10907 10909 10912 10914 10917 10920 10923 10925 10927 10929 10931 10932 10933 10936 10939 10940 10940 10941 10943 10944 10945 10945 10946 10950 10952 10952 10951 10950 10950 10953 10952 10951 10949 10950 10956 10961 10962 10962 10962 10961 10962 10963 10964 10964 10964 10963 10962 10962 10961 10961 10961 10961 10961 10962 10963 10964 10963 10963 10963 10963 10962 10960 10958 10957 10957 10957 10955 10954 10953 10952 10951 10951 10949 10947 10945 10944 10944 10943 10943 10942 10942 10941 10940
10887 10890 10892 10895 10898 10901 10903 10906 10909 10911 10914 10917 10920 10922 10923 10925 10927 10929 10932 10933 10934 10935 10936 10938 10939 10940 10940 10942 10947 10948 10948 10948 10948 10950 10950 10949 10948 10946 10946 10950 10956 10958 10958 10957 10957 10958 10960 10961 10961 10962 10961 10959 10959 10958 10958 10959 10959 10959 10960 10961 10961 10960 10959 10959 10961 10960 10958 10957 10955 10955 10954 10953 10951 10951 10951 10950 10950 10948 10946 10943 10942 10941 10940 10940 10941 10940 10939 10938
10881 10884 10886 10889 10892 10895 10897 10900 10903 10906 10908 10911 10913 10915 10917 10920 10921 10923 10926 10927 10928 10929 10932 10933 10935 10936 10936 10938 10943 10945 10945 10945 10945 10946 10945 10944 10944 10945 10945 10945 10950 10954 10954 10953 10953 10955 10956 10957 10959 10959 10958 10957 10956 10956 10955 10955 10955 10956 10957 10957 10958 10957 10956 10957 10958 10958 10957 10956 10954 10952 10951 10949 10948 10949 10949 10949 10949 10947 10944 10941 10939 10938 10938 10938 10938 10938 10937 10937
10875 10878 10880 10883 10886 10888 10891 10894 10897 10900 10902 10905 10907 10908 10911 10913 10915 10918 10919 10921 10923 10925 10927 10929 10930 10931 10931 10935 10940 10941 10941 10941 10941 10941 10940 10940 10942 10944 10944 10942 10945 10950 10950 10949 10949 10951 10953 10954 10955 10955 10955 10955 10955 10955 10954 10952 10951 10951 10952 10953 10954 10955 10955 10955 10956 10956 10955 10954 10953 10951 10949 10947 10946 10946 10947 10948 10947 10945 10943 10940 10937 10936 10936 10936 10936 10935 10935 10935
10870 10872 10875 10877 10880 10882 10885 10888 10891 10893 10896 10898 10900 10902 10905 10908 10910 10912 10914 10916 10919 10921 10923 10924 10925 10926 10927 10931 10937 10938 10937 10936 10936 10936 10936 10937 10940 10942 10942 10940 10941 10944 10946 10945 10945 10947 10950 10951 10952 10951 10951 10952 10954 10954 10953 10951 10950 10949 10949 10949 10950 10952 10953 10953 10954 10954 10954 10953 10951 10950 10947 10945 10944 10944 10945 10946 10944 10943 10941 10938 10936 10934 10933 10933 10934 10933 10933 10932
10864 10867 10869 10872 10874 10876 10879 10882 10885 10886 10888 10891 10893 10896 10899 10902 10905 10907 10909 10912 10915 10916 10918 10918 10919 10921 10924 10928 10933 10934 10933 10932 10931 10932 10933 10934 10936 10939 10939 10939 10937 10938 10940 10941 10941 10944 10946 10948 10947 10946 10947 10949 10951 10952 10951 10950 10949 10949 10949 10948 10949 10949 10950 10951 10951 10952 10951 10951 10949 10948 10946 10944 10942 10942 10943 10943 10942 10941 10939 10937 10935 10932 10931 10931 10932 10931 10931 10931
10859 10861 10864 10866 10868 10871 10874 10876 10878 10879 10882 10885 10888 10891 10894 10897 10899 10901 10904 10907 10908 10909 10910 10911 10912 10915 10920 10924 10928 10929 10928 10926 10925 10928 10930 10931 10932 10935 10937 10936 10935 10933 10933 10935 10939 10942 10943 10944 10943 10941 10943 10946 10948 10947 10947 10947 10946 10946 10947 10948 10948 10949 10949 10948 10948 10948 10948 10948 10947 10946 10945 10943 10941 10940 10940 10940 10940 10938 10937 10935 10934 10932 10930 10929 10929 10929 10929 10928
10854 10856 10859 10861 10863 10866 10868 10870 10871 10873 10875 10879 10882 10886 10889 10891 10893 10894 10897 10899 10901 10901 10903 10904 10905 10910 10916 10919 10922 10923 10922 10920 10921 10924 10925 10926 10928 10931 10934 10934 10932 10929 10927 10932 10937 10939 10940 10939 10937 10937 10940 10943 10943 10943 10942 10942 10942 10943 10943 10945 10947 10948 10947 10946 10945 10944 10944 10944 10944 10943 10943 10941 10939 10937 10937 10938 10938 10936 10934 10933 10932 10931 10929 10928 10927 10927 10926 10925
10849 10851 10854 10856 10858 10861 10863 10865 10866 10867 10870 10873 10877 10880 10883 10885 10885 10887 10890 10893 10895 10895 10897 10898 10900 10906 10912 10914 10915 10916 10916 10916 10917 10919 10919 10921 10924 10928 10931 10931 10929 10926 10925 10928 10932 10935 10936 10933 10932 10935 10938 10939 10938 10938 10938 10937 10938 10938 10940 10943 10944 10945 10945 10944 10943 10942 10940 10940 10940 10940 10941 10938 10936 10935 10934 10935 10936 10934 10932 10931 10930 10930 10929 10927 10926 10926 10924 10922
10843 10846 10849 10851 10853 10855 10858 10859 10861 10863 10865 10868 10871 10874 10876 10878 10879 10882 10884 10887 10889 10889 10891 10893 10896 10902 10907 10909 10909 10908 10909 10911 10912 10912 10913 10917 10921 10924 10927 10927 10926 10924 10923 10924 10926 10930 10931 10926 10929 10934 10935 10935 10934 10933 10933 10933 10933 10935 10937 10940 10941 10942 10942 10941 10941 10939 10938 10938 10937 10937 10937 10936 10934 10932 10931 10931 10933 10932 10930 10929 10929 10928 10927 10926 10925 10924 10922 10920
10838 10841 10844 10846 10848 10850 10853 10854 10856 10858 10861 10863 10865 10868 10870 10872 10874 10876 10878 10881 10883 10883 10885 10888 10891 10898 10902 10902 10900 10900 10903 10905 10906 10908 10910 10914 10918 10921 10923 10924 10923 10921 10920 10920 10922 10925 10923 10921 10927 10932 10932 10932 10930 10928 10929 10928 10928 10931 10934 10936 10937 10938 10937 10937 10936 10936 10936 10936 10935 10935 10935 10934 10932 10929 10928 10928 10929 10929 10928 10927 10926 10926 10925 10924 10923 10922 10920 10917
10832 10836 10839 10841 10843 10846 10848 10849 10851 10854 10856 10857 10859 10862 10864 10866 10868 10870 10873 10875 10877 10877 10879 10883 10887 10893 10896 10895 10894 10896 10898 10900 10903 10905 10907 10911 10915 10917 10919 10920 10919 10917 10916 10917 10919 10921 10916 10915 10924 10928 10928 10928 10926 10925 10925 10924 10925 10928 10931 10932 10933 10933 10932 10932 10932 10932 10933 10933 10932 10933 10934 10933 10929 10926 10925 10925 10926 10926 10925 10924 10923 10923 10922 10922 10920 10918 10917 10914
10827 10830 10833 10836 10838 10841 10843 10845 10847 10849 10850 10852 10854 10857 10859 10861 10863 10865 10868 10869 10871 10872 10874 10879 10883 10887 10890 10891 10890 10891 10892 10895 10901 10903 10903 10907 10910 10913 10914 10914 10913 10912 10913 10915 10918 10917 10909 10910 10920 10923 10923 10925 10924 10922 10921 10922 10923 10925 10927 10928 10928 10928 10927 10927 10929 10929 10930 10929 10929 10931 10934 10933 10928 10924 10922 10922 10922 10922 10922 10921 10920 10920 10920 10918 10916 10914 10913 10910
10822 10825 10828 10831 10834 10836 10838 10841 10843 10844 10845 10847 10850 10852 10853 10856 10858 10860 10863 10864 10865 10867 10870 10875 10879 10882 10886 10887 10885 10885 10889 10893 10898 10899 10900 10904 10906 10907 10908 10908 10908 10909 10911 10914 10916 10912 10904 10905 10915 10918 10919 10921 10919 10917 10919 10921 10920 10920 10923 10923 10923 10923 10922 10923 10926 10927 10928 10926 10925 10929 10932 10931 10927 10924 10921 10920 10920 10920 10920 10919 10918 10917 10917 10915 10912 10910 10908 10907
10816 10820 10823 10826 10829 10831 10834 10836 10838 10840 10841 10844 10846 10847 10849 10851 10853 10855 10858 10858 10860 10864 10868 10871 10875 10879 10882 10882 10881 10882 10886 10890 10894 10895 10897 10899 10900 10901 10902 10903 10905 10906 10908 10910 10911 10907 10900 10901 10910 10914 10915 10916 10913 10912 10916 10917 10916 10916 10919 10918 10918 10919 10918 10921 10923 10925 10926 10923 10922 10927 10930 10928 10925 10923 10921 10919 10918 10918 10918 10917 10916 10916 10914 10911 10908 10907 10905 10903
10811 10815 10818 10821 10824 10826 10829 10832 10833 10835 10838 10840 10841 10843 10844 10846 10848 10850 10852 10853 10856 10861 10865 10868 10871 10875 10877 10878 10878 10879 10882 10886 10890 10892 10893 10894 10894 10895 10897 10899 10900 10901 10903 10904 10905 10903 10898 10897 10905 10911 10911 10909 10908 10909 10913 10913 10912 10913 10914 10914 10914 10915 10915 10918 10920 10922 10924 10921 10920 10924 10926 10925 10922 10920 10919 10917 10916 10916 10916 10916 10914 10913 10911 10907 10904 10903 10902 10901
10806 10809 10813 10816 10818 10821 10824 10826 10829 10831 10833 10835 10837 10838 10840 10842 10843 10845 10847 10850 10854 10859 10862 10864 10867 10870 10872 10873 10873 10874 10877 10881 10885 10887 10887 10887 10888 10890 10892 10894 10895 10896 10898 10899 10899 10899 10896 10895 10900 10906 10905 10904 10906 10907 10908 10909 10908 10909 10909 10910 10911 10912 10914 10916 10918 10920 10920 10918 10918 10922 10923 10922 10919 10916 10916 10915 10913 10913 10913 10912 10911 10909 10906 10903 10901 10900 10899 10899
10801 10804 10807 10811 10813 10816 10819 10821 10824 10827 10829 10831 10832 10834 10836 10837 10839 10841 10844 10847 10852 10855 10858 10860 10862 10864 10866 10866 10866 10868 10871 10875 10878 10880 10881 10881 10882 10885 10888 10890 10891 10892 10893 10894 10895 10896 10895 10893 10895 10899 10901 10902 10903 10904 10904 10904 10905 10904 10904 10906 10907 10909 10912 10914 10915 10916 10916 10916 10917 10919 10919 10918 10916 10914 10913 10912 10911 10911 10910 10909 10907 10905 10902 10900 10898 10897 10897 10898
10795 10799 10802 10805 10808 10810 10813 10816 10820 10822 10824 10826 10828 10829 10831 10832 10834 10838 10841 10845 10849 10851 10853 10855 10857 10858 10859 10860 10862 10864 10867 10870 10873 10875 10876 10876 10878 10880 10883 10886 10887 10888 10889 10891 10892 10893 10893 10891 10890 10892 10896 10899 10900 10900 10900 10900 10901 10900 10900 10903 10905 10906 10910 10912 10913 10913 10914 10915 10915 10914 10915 10915 10913 10912 10911 10910 10909 10908 10907 10905 10904 10901 10899 10897 10895 10895 10896 10896
10789 10793 10797 10800 10803 10805 10808 10812 10815 10818 10819 10821 10823 10824 10826 10827 10831 10836 10839 10841 10844 10846 10848 10850 10852 10854 10855 10857 10859 10861 10864 10867 10869 10871 10872 10873 10874 10876 10879 10882 10884 10884 10886 10888 10889 10889 10888 10887 10886 10887 10891 10895 10897 10897 10896 10897 10899 10897 10898 10902 10903 10903 10906 10908 10910 10911 10912 10913 10912 10911 10912 10911 10910 10910 10908 10907 10906 10905 10903 10902 10900 10898 10896 10894 10894 10894 10894 10893
10784 10788 10792 10795 10798 10800 10804 10808 10810 10813 10815 10817 10819 10819 10820 10824 10829 10833 10835 10837 10839 10841 10843 10845 10848 10850 10852 10854 10856 10858 10860 10863 10865 10867 10869 10869 10870 10872 10875 10878 10880 10880 10882 10884 10885 10884 10883 10882 10884 10887 10888 10890 10892 10893 10893 10895 10896 10895 10896 10898 10898 10899 10903 10905 10906 10907 10908 10910 10910 10909 10909 10908 10908 10907 10905 10904 10903 10901 10899 10897 10896 10894 10893 10892 10893 10893 10891 10890
10778 10783 10787 10790 10792 10795 10799 10803 10805 10808 10810 10812 10814 10814 10817 10822 10827 10830 10831 10831 10833 10836 10838 10841 10843 10846 10848 10850 10852 10855 10857 10859 10862 10863 10864 10865 10867 10869 10871 10873 10876 10877 10877 10879 10879 10880 10879 10879 10883 10885 10884 10884 10886 10889 10892 10892 10893 10895 10895 10893 10894 10898 10901 10901 10901 10902 10904 10906 10907 10907 10906 10905 10904 10903 10902 10902 10900 10897 10895 10893 10892 10892 10891 10891 10891 10890 10887 10886
10773 10778 10782 10785 10787 10790 10795 10798 10801 10804 10806 10808 10808 10810 10816 10821 10824 10825 10825 10827 10829 10831 10834 10837 10839 10842 10844 10846 10848 10851 10853 10855 10857 10858 10859 10861 10863 10865 10867 10870 10873 10873 10873 10875 10876 10877 10877 10878 10881 10883 10881 10880 10883 10887 10890 10890 10890 10893 10893 10891 10893 10896 10896 10896 10897 10898 10900 10902 10902 10903 10902 10902 10901 10899 10899 10898 10896 10893 10891 10890 10890 10889 10888 10889 10888 10886 10884 10883
10768 10773 10777 10779 10782 10787 10790 10793 10796 10799 10801 10803 10804 10808 10814 10818 10820 10821 10821 10822 10824 10827 10830 10832 10834 10837 10840 10841 10843 10846 10849 10850 10852 10854 10856 10857 10858 10860 10863 10866 10869 10870 10871 10872 10873 10874 10874 10876 10879 10880 10878 10879 10883 10886 10887 10887 10889 10890 10890 10891 10893 10894 10893 10894 10894 10895 10897 10898 10898 10899 10899 10898 10896 10896 10896 10894 10891 10889 10888 10887 10887 10886 10886 10885 10884 10883 10881 10880
10763 10768 10771 10774 10778 10782 10785 10788 10792 10795 10797 10799 10802 10807 10812 10815 10816 10817 10817 10818 10820 10822 10825 10826 10829 10832 10834 10836 10839 10842 10845 10846 10848 10851 10852 10853 10855 10857 10859 10862 10864 10866 10867 10869 10870 10871 10872 10875 10876 10876 10876 10878 10881 10882 10883 10885 10887 10888 10889 10890 10891 10891 10891 10892 10893 10893 10894 10894 10895 10896 10896 10893 10892 10892 10891 10890 10888 10886 10884 10884 10884 10883 10882 10882 10881 10880 10878 10878
10758 10763 10766 10770 10774 10777 10781 10784 10787 10790 10793 10796 10800 10805 10809 10812 10812 10812 10812 10814 10815 10817 10819 10821 10824 10827 10829 10831 10835 10838 10841 10842 10845 10847 10847 10849 10852 10854 10857 10860 10862 10863 10865 10867 10868 10868 10870 10871 10871 10873 10875 10876 10878 10879 10881 10884 10886 10887 10888 10888 10888 10889 10889 10890 10891 10892 10892 10892 10893 10893 10892 10889 10887 10887 10887 10886 10884 10882 10881 10881 10881 10880 10879 10878 10878 10877 10876 10876
10753 10757 10761 10765 10769 10772 10776 10779 10783 10785 10789 10793 10797 10802 10806 10807 10807 10807 10808 10809 10811 10812 10813 10816 10819 10822 10824 10828 10831 10834 10836 10838 10841 10843 10844 10847 10850 10853 10856 10859 10861 10862 10863 10864 10864 10865 10866 10867 10869 10872 10873 10874 10876 10877 10880 10882 10884 10884 10885 10885 10886 10887 10887 10888 10889 10890 10890 10890 10890 10890 10888 10885 10884 10884 10884 10883 10881 10879 10879 10878 10877 10877 10876 10875 10875 10874 10874 10875
10748 10752 10756 10761 10765 10768 10771 10775 10778 10781 10786 10791 10795 10799 10802 10802 10802 10803 10804 10805 10807 10808 10809 10811 10815 10818 10821 10824 10827 10830 10833 10836 10838 10840 10842 10844 10847 10851 10855 10856 10858 10859 10859 10859 10860 10860 10862 10864 10866 10868 10870 10872 10875 10877 10878 10880 10880 10881 10882 10882 10883 10885 10886 10887 10887 10888 10887 10887 10886 10886 10885 10883 10881 10881 10881 10880 10879 10877 10876 10876 10874 10874 10874 10873 10873 10872 10873 10874
10743 10747 10752 10757 10760 10763 10766 10770 10774 10779 10785 10789 10792 10796 10798 10797 10797 10799 10800 10802 10803 10804 10805 10808 10811 10814 10818 10821 10823 10826 10830 10834 10836 10838 10839 10841 10845 10849 10851 10852 10854 10855 10854 10855 10855 10856 10857 10859 10861 10864 10867 10870 10873 10875 10876 10877 10877 10878 10879 10880 10881 10882 10883 10884 10885 10885 10884 10883 10883 10882 10882 10881 10879 10879 10878 10878 10877 10875 10874 10873 10872 10872 10872 10871 10870 10870 10872 10875
10738 10743 10748 10751 10754 10758 10762 10766 10772 10777 10782 10785 10788 10791 10793 10793 10794 10796 10797 10799 10800 10801 10802 10805 10808 10811 10815 10817 10819 10823 10828 10831 10833 10833 10834 10837 10841 10845 10847 10849 10850 10850 10850 10851 10852 10852 10853 10855 10859 10863 10866 10869 10871 10872 10873 10874 10875 10876 10877 10878 10878 10879 10880 10881 10881 10881 10880 10879 10879 10879 10880 10879 10877 10876 10876 10875 10874 10873 10871 10871 10870 10870 10870 10868 10868 10869 10874 10877
10733 10738 10743 10746 10750 10754 10759 10764 10770 10775 10778 10781 10784 10787 10788 10789 10791 10793 10794 10796 10798 10799 10801 10803 10806 10808 10811 10814 10817 10820 10825 10828 10828 10828 10830 10834 10839 10841 10843 10845 10845 10846 10846 10847 10849 10850 10851 10855 10860 10863 10865 10867 10869 10870 10871 10873 10874 10874 10874 10875 10876 10876 10877 10878 10877 10877 10876 10876 10877 10877 10877 10876 10875 10874 10873 10872 10871 10870 10869 10869 10868 10868 10867 10865 10865 10868 10872 10872
10729 10734 10738 10742 10746 10752 10757 10762 10766 10771 10774 10777 10779 10781 10783 10786 10788 10789 10791 10794 10797 10798 10799 10801 10803 10806 10808 10811 10815 10818 10822 10823 10823 10824 10827 10831 10836 10838 10839 10840 10841 10841 10842 10843 10846 10848 10850 10855 10861 10863 10864 10864 10865 10867 10869 10871 10871 10871 10871 10872 10874 10875 10875 10875 10875 10874 10873 10873 10874 10874 10873 10872 10872 10871 10870 10869 10868 10868 10867 10867 10866 10865 10863 10862 10862 10863 10865 10864
10725 10730 10734 10737 10743 10748 10753 10757 10762 10766 10769 10772 10775 10777 10781 10784 10785 10786 10789 10792 10794 10795 10796 10797 10800 10803 10805 10809 10813 10816 10818 10818 10819 10821 10824 10828 10832 10834 10835 10836 10837 10837 10838 10840 10844 10847 10850 10856 10860 10861 10861 10861 10862 10865 10867 10868 10868 10868 10868 10870 10871 10872 10872 10872 10871 10871 10870 10870 10870 10869 10868 10868 10868 10867 10866 10866 10865 10865 10864 10864 10863 10862 10860 10859 10859 10859 10860 10859
10721 10725 10729 10733 10738 10744 10747 10752 10757 10762 10765 10768 10771 10775 10779 10782 10783 10784 10787 10789 10790 10791 10792 10794 10796 10799 10802 10806 10809 10812 10813 10814 10815 10817 10820 10824 10828 10829 10830 10832 10833 10833 10835 10838 10841 10845 10850 10854 10857 10857 10857 10857 10859 10861 10863 10864 10865 10865 10866 10867 10868 10868 10868 10867 10867 10866 10866 10866 10865 10865 10864 10865 10865 10864 10863 10863 10862 10861 10861 10860 10859 10858 10857 10855 10855 10855 10855 10855
10717 10721 10724 10728 10734 10739 10743 10748 10754 10758 10761 10764 10769 10774 10778 10781 10781 10782 10783 10785 10786 10787 10789 10791 10793 10796 10799 10802 10804 10807 10808 10809 10810 10812 10815 10820 10823 10824 10826 10828 10830 10831 10833 10836 10840 10844 10848 10851 10852 10852 10852 10854 10855 10857 10859 10861 10862 10863 10863 10864 10865 10864 10863 10862 10862 10862 10862 10861 10860 10861 10862 10863 10863 10862 10861 10860 10859 10858 10857 10857 10856 10855 10853 10852 10851 10851 10851 10850
10712 10715 10719 10724 10730 10735 10740 10746 10751 10755 10758 10763 10768 10773 10777 10777 10776 10776 10778 10781 10783 10785 10787 10790 10792 10794 10796 10797 10800 10803 10805 10805 10805 10807 10810 10815 10818 10820 10822 10825 10827 10829 10831 10835 10839 10842 10844 10845 10846 10847 10849 10851 10853 10854 10856 10858 10860 10861 10861 10862 10861 10860 10859 10858 10858 10858 10857 10856 10857 10858 10859 10860 10859 10858 10858 10857 10856 10855 10854 10854 10853 10852 10850 10849 10848 10847 10846 10845
10707 10710 10715 10720 10726 10732 10737 10743 10748 10751 10755 10761 10767 10770 10771 10771 10770 10772 10775 10778 10781 10784 10786 10788 10790 10790 10791 10793 10796 10799 10801 10801 10802 10803 10806 10809 10812 10815 10819 10821 10824 10827 10829 10833 10836 10838 10839 10841 10842 10844 10846 10847 10849 10851 10853 10856 10857 10858 10858 10858 10857 10856 10855 10855 10854 10854 10853 10853 10855 10856 10856 10856 10856 10855 10854 10853 10852 10852 10851 10850 10850 10849 10847 10846 10844 10842 10841 10840
10702 10706 10711 10717 10723 10729 10734 10740 10744 10748 10754 10759 10763 10765 10765 10766 10767 10770 10772 10776 10780 10782 10782 10784 10785 10786 10787 10789 10793 10795 10797 10798 10799 10801 10803 10805 10808 10812 10815 10818 10821 10824 10826 10828 10831 10833 10835 10838 10839 10840 10841 10842 10845 10847 10850 10853 10854 10854 10855 10854 10853 10851 10851 10851 10851 10851 10851 10852 10852 10852 10853 10852 10852 10851 10850 10850 10849 10848 10847 10847 10846 10845 10844 10842 10840 10838 10836 10834